Content
SEND FEEDBACK

Daily
Averages
Monthly
Summary
United States of America

CAPE MAY, NEW JERSEY


Home > North America > United States > New Jersey
Elevation: 22 feet     Latitude: 39 00N     Longitude: 074 54W

WEATHER
 
SELECT A DAY
Number of Records: 44,187;   Date Range: 9/1/12 - 9/3/14
 
SHARE

PRINT THIS DATA

[ ← Previous Day ]
WEATHER ALMANAC - JANUARY 23, 2013
[ Next Day → ]
[ °C ]   °F
Weather ElementAverageHighLow
Temperature19.8 °F23 °F (2:15 pm)17.6 °F (12:35 am)
Dewpoint0.4 °F3.2 °F (10:35 am)-2.2 °F (3:55 am)
Humidity42.9 %49 % (2:35 am)36 % (4:15 pm)
Barometer30.26 in30.33 in (9:55 am)30.19 in (11:55 pm)
Wind Speed10.2 mph16.1 mph (11:35 am)
Wind Gust23 mph (9:15 am)
Weather ElementAverage
Visibility10 mi
Wind DirectionWSW (253.8 °)

Weather ElementTotal
Precipitation---
Heating Degree Days44.7 (Base 65)
Averaged from 71 records on January 23, 2013
WEATHER CONDITIONS BREAKOUT
WIND DIRECTION BREAKOUT
WEATHER BY HOUR - JANUARY 23, 2013
[ °C ]   °F
Local TimeTemperatureDewpointHumidityBarometerVisibilityWind DirectionWind SpeedGust SpeedPrecipitationEventsConditions
12:35 AM17.6 °F-0.4 °F45 %30.26 in10.0 miNNW (330°)15.0 mph21.9 mphClear
12:55 AM17.6 °F-0.4 °F45 %30.27 in10.0 miNW (320°)11.5 mph18.4 mphClear
1:15 AM17.6 °F-0.4 °F45 %30.27 in10.0 miNNW (340°)9.2 mph18.4 mphClear
1:35 AM17.6 °F-0.4 °F45 %30.28 in10.0 miNNW (330°)6.9 mphClear
1:55 AM17.6 °F-0.4 °F45 %30.28 in10.0 miNNW (330°)9.2 mphClear
2:15 AM17.6 °F-0.4 °F45 %30.28 in10.0 miNW (320°)6.9 mph16.1 mphClear
2:35 AM17.6 °F1.4 °F49 %30.29 in10.0 miNW (310°)8.1 mphClear
2:55 AM17.6 °F-0.4 °F45 %30.28 in10.0 miNW (320°)11.5 mph18.4 mphPartly Cloudy
3:15 AM17.6 °F-0.4 °F45 %30.28 in10.0 miNW (320°)8.1 mph17.3 mphMostly Cloudy
3:35 AM17.6 °F-0.4 °F45 %30.28 in10.0 miWNW (300°)12.7 mph21.9 mphMostly Cloudy
3:55 AM17.6 °F-2.2 °F42 %30.28 in10.0 miNW (310°)11.5 mphScattered Clouds
4:15 AM17.6 °F-2.2 °F42 %30.28 in10.0 miWest (280°)15.0 mph18.4 mphScattered Clouds
4:35 AM17.6 °F-0.4 °F45 %30.28 in10.0 miNW (310°)9.2 mph18.4 mphPartly Cloudy
4:55 AM17.6 °F-0.4 °F45 %30.28 in10.0 miWNW (300°)11.5 mph17.3 mphMostly Cloudy
5:15 AM17.6 °F-2.2 °F42 %30.29 in10.0 miWNW (300°)9.2 mph19.6 mphMostly Cloudy
5:35 AM17.6 °F-0.4 °F45 %30.29 in10.0 miNW (310°)12.7 mph17.3 mphMostly Cloudy
5:55 AM17.6 °F-0.4 °F45 %30.29 in10.0 miNW (310°)10.4 mph17.3 mphMostly Cloudy
6:15 AM17.6 °F-0.4 °F45 %30.29 in10.0 miNW (310°)9.2 mph21.9 mphScattered Clouds
6:35 AM17.6 °F-2.2 °F42 %30.30 in10.0 miWNW (300°)12.7 mph19.6 mphScattered Clouds
6:55 AM17.6 °F-0.4 °F45 %30.30 in10.0 miWNW (300°)12.7 mph19.6 mphMostly Cloudy
7:15 AM17.6 °F-0.4 °F45 %30.30 in10.0 miNW (310°)12.7 mph18.4 mphMostly Cloudy
7:35 AM17.6 °F-0.4 °F45 %30.30 in10.0 miWNW (290°)10.4 mph18.4 mphMostly Cloudy
7:55 AM17.6 °F-0.4 °F45 %30.30 in10.0 miWNW (300°)10.4 mph18.4 mphMostly Cloudy
8:15 AM17.6 °F-0.4 °F45 %30.31 in10.0 miWNW (290°)9.2 mph18.4 mphMostly Cloudy
8:35 AM17.6 °F-0.4 °F45 %30.32 in10.0 miWNW (290°)11.5 mph19.6 mphScattered Clouds
8:55 AM17.6 °F-0.4 °F45 %30.32 in10.0 miWNW (290°)11.5 mphMostly Cloudy
9:15 AM17.6 °F-0.4 °F45 %30.32 in10.0 miWNW (300°)11.5 mph23.0 mphMostly Cloudy
9:35 AM17.6 °F1.4 °F49 %30.32 in10.0 miWest (280°)13.8 mph18.4 mphMostly Cloudy
9:55 AM19.4 °F1.4 °F46 %30.33 in10.0 miWest (280°)13.8 mph20.7 mphScattered Clouds
10:15 AM19.4 °F1.4 °F46 %30.33 in10.0 miWest (280°)11.5 mph21.9 mphMostly Cloudy
10:35 AM21.2 °F3.2 °F46 %30.33 in10.0 miWNW (300°)9.2 mph20.7 mphMostly Cloudy
10:55 AM21.2 °F1.4 °F42 %30.32 in10.0 miWNW (290°)11.5 mphMostly Cloudy
11:15 AM21.2 °F-0.4 °F39 %30.31 in10.0 miWest (280°)13.8 mph19.6 mphMostly Cloudy
11:35 AM21.2 °F1.4 °F42 %30.30 in10.0 miWest (280°)16.1 mph20.7 mphMostly Cloudy
11:55 AM21.2 °F1.4 °F42 %30.28 in10.0 miWNW (290°)15.0 mph20.7 mphScattered Clouds
12:15 PM21.2 °F1.4 °F42 %30.27 in10.0 miWNW (290°)13.8 mph20.7 mphScattered Clouds
12:35 PM21.2 °F1.4 °F42 %30.25 in10.0 miWest (280°)16.1 mph21.9 mphPartly Cloudy
12:55 PM21.2 °F1.4 °F42 %30.24 in10.0 miWNW (290°)11.5 mph18.4 mphPartly Cloudy
1:15 PM21.2 °F1.4 °F42 %30.23 in10.0 miNW (310°)10.4 mphClear
1:35 PM21.2 °F1.4 °F42 %30.23 in10.0 miWNW (290°)12.7 mph18.4 mphClear
1:55 PM21.2 °F1.4 °F42 %30.23 in10.0 miWest (270°)15.0 mph20.7 mphClear
2:15 PM23.0 °F1.4 °F39 %30.22 in10.0 miWNW (300°)11.5 mph21.9 mphClear
2:35 PM23.0 °F1.4 °F39 %30.22 in10.0 miWNW (290°)12.7 mph20.7 mphClear
2:55 PM23.0 °F1.4 °F39 %30.22 in10.0 miWest (270°)15.0 mph18.4 mphClear
3:15 PM23.0 °F1.4 °F39 %30.23 in10.0 miWNW (300°)6.9 mph17.3 mphScattered Clouds
3:35 PM23.0 °F1.4 °F39 %30.23 in10.0 miWNW (290°)15.0 mph19.6 mphScattered Clouds
3:55 PM21.2 °F-0.4 °F39 %30.23 in10.0 miWNW (300°)10.4 mph20.7 mphPartly Cloudy
4:15 PM23.0 °F-0.4 °F36 %30.23 in10.0 miWest (280°)11.5 mph18.4 mphScattered Clouds
4:35 PM23.0 °F-0.4 °F36 %30.22 in10.0 miWNW (290°)11.5 mph20.7 mphOvercast
4:55 PM21.2 °F-0.4 °F39 %30.22 in10.0 miWNW (300°)10.4 mph17.3 mphMostly Cloudy
5:15 PM21.2 °F-0.4 °F39 %30.22 in10.0 miWNW (300°)8.1 mph18.4 mphPartly Cloudy
5:35 PM21.2 °F-0.4 °F39 %30.22 in10.0 miNW (310°)8.1 mph16.1 mphClear
5:55 PM21.2 °F1.4 °F42 %30.23 in10.0 miWNW (300°)6.9 mph18.4 mphClear
6:15 PM21.2 °F1.4 °F42 %30.24 in10.0 miWNW (300°)9.2 mph16.1 mphClear
6:35 PM21.2 °F1.4 °F42 %30.23 in10.0 miNW (310°)8.1 mphMostly Cloudy
6:55 PM23.0 °F1.4 °F39 %30.23 in10.0 miWNW (290°)8.1 mph16.1 mphOvercast
7:15 PM23.0 °F1.4 °F39 %30.22 in10.0 miWNW (300°)6.9 mphOvercast
7:35 PM23.0 °F1.4 °F39 %30.22 in10.0 miNW (310°)9.2 mphOvercast
7:55 PM23.0 °F1.4 °F39 %30.22 in10.0 miWNW (290°)5.8 mphOvercast
8:15 PM21.2 °F1.4 °F42 %30.22 in10.0 miNorth (10°)6.9 mphOvercast
8:35 PM21.2 °F1.4 °F42 %30.22 in10.0 miNNE (30°)6.9 mphOvercast
8:55 PM19.4 °F1.4 °F46 %30.21 in10.0 miNNE (30°)8.1 mphOvercast
9:15 PM19.4 °F1.4 °F46 %30.21 in10.0 miNE (40°)5.8 mphOvercast
9:35 PM19.4 °F-0.4 °F42 %30.21 in10.0 miNE (40°)6.9 mphOvercast
9:55 PM19.4 °F1.4 °F46 %30.21 in10.0 miNE (40°)5.8 mphOvercast
10:15 PM19.4 °F1.4 °F46 %30.20 in10.0 miNNE (30°)6.9 mphOvercast
10:35 PM19.4 °F1.4 °F46 %30.20 in10.0 miNNE (30°)5.8 mphOvercast
10:55 PM19.4 °F-0.4 °F42 %30.20 in10.0 miNNE (20°)5.8 mphOvercast
11:15 PM19.4 °F-0.4 °F42 %30.20 in10.0 miNNE (20°)5.8 mphOvercast
11:35 PM19.4 °F1.4 °F46 %30.20 in10.0 miNNE (30°)6.9 mphOvercast
11:55 PM19.4 °F-0.4 °F42 %30.19 in10.0 miNE (40°)5.8 mphOvercast
Hourly data recorded from KWWD, located miles away from Cape May, New Jersey







STORIES FROM OUR PARTNERS